Location: Burera
(21.3780°N, 81.9534°E)
Time: 00:34:41
(UTC+00:00)

SL-8 R/B - Pass Details

Date: 13 August 2020
Orbit: 657 x 667 km, 48.4° (Epoch: 22 September)

Event Time Altitude Azimuth Distance (km) Brightness Sun altitude
Rises 14:39:20 0° 324° (NW) 2,996 8.1 -21.6°
Reaches altitude 10° 14:41:47 10° 331° (NNW) 2,082 7.0 -22.1°
Maximum altitude 14:46:23 44° 44° (NE) 910 4.2 -23.1°
Enters shadow 14:46:32 44° 49° (NE) 911 4.2 -23.1°
